Location: Naloco
(16.5478°S, 37.1017°E)
Time: 02:53:04
(UTC+00:00)

Atlas Centaur 2 - Pass Details

Date: 13 August 2020
Orbit: 459 x 1310 km, 30.4° (Epoch: 23 September)

Event Time Altitude Azimuth Distance (km) Brightness Sun altitude
Rises 16:30:12 0° 234° (SW) 2,668 5.5 -16.7°
Reaches altitude 10° 16:32:44 10° 223° (SW) 1,695 4.2 -17.3°
Maximum altitude 16:36:06 30° 160° (SSE) 864 2.0 -18.1°
Enters shadow 16:36:09 30° 158° (SSE) 864 2.0 -18.1°
